Location: Unnamed
(41.3887°N, 73.9481°W)
Time: 07:56:23
(UTC-04:00)

ISS - Visible Passes

Search period start: 01 July 2022 00:00
Search period end: 11 July 2022 00:00
Orbit: 414 x 420 km, 51.6° (Epoch: 01 July)

Date Brightness Start Highest point End Pass type
(mag) Time Alt. Az. Time Alt. Az. Time Alt. Az.
01 Jul -1.0 02:00:50 13° E 02:00:50 13° E 02:01:19 10° E visible
01 Jul -3.0 03:33:44 26° W 03:35:13 45° NNW 03:38:29 10° NE visible
02 Jul -3.6 02:47:10 72° N 02:47:10 72° N 02:50:22 10° NE visible
02 Jul -1.4 04:21:42 10° WNW 04:24:13 19° NNW 04:26:43 10° NNE visible
03 Jul -1.8 02:00:33 26° ENE 02:00:33 26° ENE 02:02:10 10° ENE visible
03 Jul -1.7 03:33:26 12° WNW 03:35:49 24° NNW 03:38:38 10° NE visible
04 Jul -2.3 02:46:46 29° NW 02:47:29 32° NNW 02:50:34 10° NE visible
04 Jul -0.9 04:23:00 10° NW 04:25:01 15° N 04:27:03 10° NNE visible
05 Jul -2.3 02:00:02 37° NNE 02:00:02 37° NNE 02:02:28 10° NE visible
05 Jul -1.0 03:34:19 10° NW 03:36:34 16° N 03:38:49 10° NNE visible
06 Jul -1.3 01:13:15 19° NE 01:13:15 19° NE 01:14:18 10° NE visible
06 Jul -1.2 02:46:07 13° WNW 02:48:07 19° NNW 02:50:39 10° NNE visible
06 Jul -0.8 04:23:51 10° NNW 04:25:51 15° N 04:27:49 10° NE visible
07 Jul -1.7 01:59:16 24° NW 01:59:42 24° NNW 02:02:32 10° NE visible
07 Jul -0.7 03:35:25 10° NW 03:37:20 14° N 03:39:17 10° NE visible
08 Jul -1.6 01:12:18 27° N 01:12:18 27° N 01:14:25 10° NE visible
08 Jul -0.7 02:46:48 10° NW 02:48:51 15° N 02:50:52 10° NNE visible
08 Jul -0.8 04:24:09 10° NNW 04:26:35 18° NNE 04:29:00 10° ENE visible
09 Jul -1.3 00:25:12 18° NE 00:25:12 18° NE 00:26:16 10° NE visible
09 Jul -0.8 01:58:04 10° NW 02:00:20 17° NNW 02:02:36 10° NNE visible
09 Jul -0.7 03:35:56 10° NNW 03:38:06 16° N 03:40:14 10° NE visible
09 Jul -0.9 23:37:50 11° NE 23:37:50 11° NE 23:38:03 10° NE visible
10 Jul -1.1 01:10:40 17° NW 01:11:52 20° NNW 01:14:25 10° NNE visible
10 Jul -0.6 02:47:36 10° NNW 02:49:34 14° N 02:51:32 10° NE visible
10 Jul -1.5 04:24:10 10° NW 04:27:09 28° NNE 04:30:07 10° E visible
